TimeCDT,TemperatureF,Dew PointF,Humidity,Sea Level PressureIn,VisibilityMPH,Wind Direction,Wind SpeedMPH,Gust SpeedMPH,PrecipitationIn,Events,Conditions,WindDirDegrees,DateUTC
12:53 AM,39.0,21.0,49,29.78,10.0,Calm,Calm,-,N/A,,Overcast,0,2012-10-08 05:53:00
1:53 AM,37.9,21.0,51,29.76,10.0,Calm,Calm,-,N/A,,Mostly Cloudy,0,2012-10-08 06:53:00
2:53 AM,36.0,21.9,57,29.76,10.0,SSW,3.5,-,N/A,,Clear,210,2012-10-08 07:53:00
3:53 AM,37.9,21.9,53,29.73,10.0,SE,3.5,-,N/A,,Scattered Clouds,140,2012-10-08 08:53:00
4:53 AM,37.0,21.0,52,29.70,10.0,SE,5.8,-,N/A,,Mostly Cloudy,130,2012-10-08 09:53:00
5:53 AM,36.0,21.0,55,29.68,10.0,SE,5.8,-,N/A,,Mostly Cloudy,140,2012-10-08 10:53:00
6:53 AM,37.0,23.0,57,29.67,10.0,SE,4.6,-,N/A,,Overcast,140,2012-10-08 11:53:00
7:53 AM,37.0,24.1,59,29.67,10.0,Variable,4.6,-,N/A,,Scattered Clouds,0,2012-10-08 12:53:00
8:53 AM,41.0,26.1,55,29.64,10.0,South,6.9,-,N/A,,Overcast,170,2012-10-08 13:53:00
9:53 AM,41.0,30.9,67,29.62,10.0,SE,9.2,-,0.00,Rain,Light Rain,140,2012-10-08 14:53:00
10:53 AM,41.0,33.1,73,29.58,10.0,SE,9.2,-,0.00,,Overcast,140,2012-10-08 15:53:00
11:53 AM,44.1,34.0,68,29.55,10.0,SSE,9.2,-,0.00,Rain,Light Rain,150,2012-10-08 16:53:00
12:53 PM,44.1,39.0,82,29.55,7.0,South,5.8,-,0.03,Rain,Light Rain,190,2012-10-08 17:53:00
1:53 PM,45.0,42.1,90,29.54,10.0,SW,9.2,-,0.04,Rain,Light Rain,230,2012-10-08 18:53:00
2:31 PM,46.4,42.8,87,29.50,10.0,WSW,9.2,-,N/A,,Overcast,240,2012-10-08 19:31:00
2:53 PM,48.0,43.0,83,29.54,10.0,WSW,11.5,-,0.00,,Overcast,250,2012-10-08 19:53:00
3:32 PM,46.4,42.8,87,29.51,10.0,West,11.5,-,0.00,,Overcast,270,2012-10-08 20:32:00
3:53 PM,46.9,43.0,86,29.55,10.0,West,21.9,26.5,0.00,,Overcast,280,2012-10-08 20:53:00
4:53 PM,46.0,41.0,83,29.58,10.0,WNW,21.9,31.1,0.01,,Overcast,290,2012-10-08 21:53:00
5:53 PM,45.0,39.0,80,29.63,10.0,WNW,18.4,24.2,N/A,,Overcast,290,2012-10-08 22:53:00
6:21 PM,44.6,37.4,76,29.60,10.0,WNW,12.7,20.7,N/A,,Overcast,290,2012-10-08 23:21:00
6:53 PM,42.1,37.0,82,29.65,10.0,West,8.1,-,N/A,,Partly Cloudy,270,2012-10-08 23:53:00
7:53 PM,37.9,36.0,93,29.67,10.0,WSW,6.9,-,N/A,,Scattered Clouds,250,2012-10-09 00:53:00
8:53 PM,42.1,39.0,89,29.67,10.0,WSW,8.1,-,0.01,,Overcast,250,2012-10-09 01:53:00
9:53 PM,39.9,37.9,93,29.68,10.0,WSW,9.2,-,N/A,,Partly Cloudy,250,2012-10-09 02:53:00
10:53 PM,37.9,36.0,93,29.69,10.0,WSW,6.9,-,N/A,,Mostly Cloudy,240,2012-10-09 03:53:00
11:53 PM,36.0,34.0,93,29.69,10.0,SW,5.8,-,N/A,,Clear,230,2012-10-09 04:53:00